Location: Blanot
(47.1713°N, 4.2340°E)
Time: 21:12:35
(UTC+00:00)

IRS-1D - Pass Details

Date: 14 July 2020
Orbit: 739 x 817 km, 98.6° (Epoch: 14 August)

Event Time Altitude Azimuth Distance (km) Brightness Sun altitude
Rises 02:18:25 0° 12° (NNE) 3,198 8.0 -13.4°
Reaches altitude 10° 02:20:43 10° 10° (N) 2,265 7.0 -13.2°
Maximum altitude 02:25:40 71° 287° (WNW) 787 3.5 -12.7°
Enters shadow 02:29:29 17° 207° (SSW) 1,822 4.8 -12.3°
